Weather History for Lakeville, MN

Change the Weather History Date:

Thursday, July 4, 2013

  Actual Average Record
Temperature  
Mean Temperature 73 °F -  
Max Temperature 87 °F 82 °F 100 °F (1949)
Min Temperature 59 °F 60 °F 43 °F (1972)
Cooling Degree Days 8    
Growing Degree Days 23 (Base 50)    
Moisture  
Dew Point 56 °F    
Average Humidity 57    
Maximum Humidity 88    
Minimum Humidity 31    
Precipitation  
Precipitation 0.00 in - - ()
Sea Level Pressure  
Sea Level Pressure 29.94 in    
Wind  
Wind Speed 5 mph (South)    
Max Wind Speed 15 mph    
Max Gust Speed 21 mph    
Visibility 10 miles    
Events      
Averages and records for this station are not official NWS values.
T = Trace of Precipitation, MM = Missing Value Source: NWS Daily Summary

Daily Weather History Graph

Daily Weather History Graph

Search for Another Location

Airport:

Trip Planner

Search our weather history database for the weather conditions in past years. The results will help you decide how hot, cold, wet, or windy it might be!

Date:

Astronomy

Jul. 04, 2013 Rise Set
Actual Time 5:33 AM CDT 9:01 PM CDT
Civil Twilight 4:56 AM CDT 9:37 PM CDT
Nautical Twilight 4:08 AM CDT 10:25 PM CDT
Astronomical Twilight 3:07 AM CDT 11:26 PM CDT
Moon 2:54 AM CDT (7/4) 6:03 PM CDT (7/4)
Length of Visible Light 16h 40m
Length of Day
15h 27m
Waning Crescent, 11% of the Moon is Illuminated
Jul 4
Waning Crescent
Jul 8
New
Jul 15
First Quarter
Jul 22
Full
Jul 29
Last Quarter

Hourly Weather History & Observations

Time (CDT) Temp. Heat Index Dew Point Humidity Pressure Visibility Wind Dir Wind Speed Gust Speed Precip Events Conditions
12:11 AM 66.2 °F - 57.2 °F 73% 29.98 in 10.0 mi SSE 5.8 mph - N/A   Clear
12:31 AM 64.4 °F - 55.4 °F 73% 29.98 in 10.0 mi SSE 4.6 mph - N/A   Clear
12:51 AM 64.4 °F - 55.4 °F 73% 29.98 in 10.0 mi SSE 4.6 mph - N/A   Clear
1:10 AM 62.6 °F - 55.4 °F 77% 29.98 in 10.0 mi South 3.5 mph - N/A   Clear
1:31 AM 62.6 °F - 55.4 °F 77% 29.98 in 10.0 mi Calm Calm - N/A   Clear
1:51 AM 62.6 °F - 55.4 °F 77% 29.97 in 10.0 mi Calm Calm - N/A   Clear
2:10 AM 60.8 °F - 55.4 °F 82% 29.97 in 10.0 mi Calm Calm - N/A   Clear
2:31 AM 59.0 °F - 55.4 °F 88% 29.97 in 10.0 mi Calm Calm - N/A   Clear
2:51 AM 60.8 °F - 55.4 °F 82% 29.96 in 10.0 mi Calm Calm - N/A   Clear
3:11 AM 60.8 °F - 55.4 °F 82% 29.96 in 10.0 mi Calm Calm - N/A   Clear
3:31 AM 60.8 °F - 55.4 °F 82% 29.96 in 10.0 mi Calm Calm - N/A   Clear
3:50 AM 60.8 °F - 55.4 °F 82% 29.96 in 10.0 mi South 3.5 mph - N/A   Clear
4:11 AM 60.8 °F - 55.4 °F 82% 29.96 in 10.0 mi Calm Calm - N/A   Scattered Clouds
4:31 AM 60.8 °F - 55.4 °F 82% 29.96 in 10.0 mi South 3.5 mph - N/A   Scattered Clouds
4:50 AM 62.6 °F - 55.4 °F 77% 29.96 in 10.0 mi South 3.5 mph - N/A   Scattered Clouds
5:11 AM 62.6 °F - 55.4 °F 77% 29.96 in 10.0 mi Calm Calm - N/A   Scattered Clouds
5:31 AM 62.6 °F - 55.4 °F 77% 29.97 in 10.0 mi Calm Calm - N/A   Clear
5:50 AM 62.6 °F - 57.2 °F 82% 29.97 in 10.0 mi South 3.5 mph - N/A   Scattered Clouds
6:11 AM 62.6 °F - 57.2 °F 82% 29.97 in 10.0 mi South 3.5 mph - N/A   Scattered Clouds
6:31 AM 62.6 °F - 57.2 °F 82% 29.97 in 10.0 mi South 3.5 mph - N/A   Clear
6:50 AM 64.4 °F - 57.2 °F 77% 29.97 in 10.0 mi South 3.5 mph - N/A   Scattered Clouds
7:11 AM 64.4 °F - 57.2 °F 77% 29.97 in 10.0 mi South 6.9 mph - N/A   Scattered Clouds
7:31 AM 66.2 °F - 59.0 °F 78% 29.98 in 10.0 mi South 6.9 mph - N/A   Mostly Cloudy
7:50 AM 68.0 °F - 59.0 °F 73% 29.97 in 10.0 mi SSW 5.8 mph - N/A   Scattered Clouds
8:11 AM 69.8 °F - 59.0 °F 68% 29.98 in 10.0 mi SSW 5.8 mph - N/A   Scattered Clouds
8:31 AM 69.8 °F - 59.0 °F 68% 29.98 in 10.0 mi SSW 5.8 mph - N/A   Scattered Clouds
8:51 AM 71.6 °F - 59.0 °F 64% 29.98 in 10.0 mi South 6.9 mph - N/A   Scattered Clouds
9:11 AM 71.6 °F - 59.0 °F 64% 29.98 in 10.0 mi SSW 5.8 mph - N/A   Scattered Clouds
9:30 AM 73.4 °F - 60.8 °F 65% 29.97 in 10.0 mi Calm Calm - N/A   Scattered Clouds
9:51 AM 75.2 °F - 60.8 °F 61% 29.96 in 10.0 mi SSW 5.8 mph - N/A   Clear
10:11 AM 75.2 °F - 60.8 °F 61% 29.96 in 10.0 mi SSW 5.8 mph - N/A   Clear
10:30 AM 77.0 °F - 60.8 °F 57% 29.96 in 10.0 mi SSW 8.1 mph - N/A   Clear
10:51 AM 78.8 °F - 60.8 °F 54% 29.96 in 10.0 mi SW 4.6 mph - N/A   Clear
11:11 AM 80.6 °F 81.5 °F 60.8 °F 51% 29.96 in 10.0 mi South 5.8 mph - N/A   Clear
11:30 AM 80.6 °F 81.5 °F 60.8 °F 51% 29.95 in 10.0 mi South 6.9 mph - N/A   Clear
11:51 AM 80.6 °F 81.5 °F 60.8 °F 51% 29.95 in 10.0 mi South 8.1 mph - N/A   Clear
12:11 PM 82.4 °F 82.0 °F 57.2 °F 42% 29.95 in 10.0 mi SSW 5.8 mph 17.3 mph N/A   Clear
12:31 PM 82.4 °F 82.0 °F 57.2 °F 42% 29.95 in 10.0 mi South 9.2 mph - N/A   Clear
12:51 PM 82.4 °F 81.7 °F 55.4 °F 39% 29.94 in 10.0 mi SSW 10.4 mph 17.3 mph N/A   Clear
1:11 PM 84.2 °F 83.0 °F 55.4 °F 37% 29.94 in 10.0 mi SW 5.8 mph 17.3 mph N/A   Clear
1:31 PM 84.2 °F 83.0 °F 55.4 °F 37% 29.93 in 10.0 mi South 11.5 mph - N/A   Clear
1:51 PM 84.2 °F 83.0 °F 55.4 °F 37% 29.93 in 10.0 mi South 11.5 mph 16.1 mph N/A   Clear
2:10 PM 84.2 °F 83.0 °F 55.4 °F 37% 29.92 in 10.0 mi SSW 8.1 mph 18.4 mph N/A   Clear
2:31 PM 84.2 °F 83.0 °F 55.4 °F 37% 29.92 in 10.0 mi South 9.2 mph - N/A   Clear
2:51 PM 86.0 °F 84.2 °F 53.6 °F 33% 29.91 in 10.0 mi SSW 9.2 mph 16.1 mph N/A   Clear
3:10 PM 86.0 °F 84.2 °F 53.6 °F 33% 29.91 in 10.0 mi SSW 9.2 mph 19.6 mph N/A   Clear
3:31 PM 86.0 °F 84.2 °F 53.6 °F 33% 29.91 in 10.0 mi SSW 5.8 mph - N/A   Clear
3:50 PM 86.0 °F 84.5 °F 55.4 °F 35% 29.91 in 10.0 mi South 11.5 mph 17.3 mph N/A   Clear
4:11 PM 86.0 °F 84.2 °F 53.6 °F 33% 29.91 in 10.0 mi South 15.0 mph 20.7 mph N/A   Clear
4:31 PM 87.8 °F 85.7 °F 53.6 °F 31% 29.91 in 10.0 mi South 11.5 mph 20.7 mph N/A   Clear
4:50 PM 87.8 °F 85.7 °F 53.6 °F 31% 29.90 in 10.0 mi SSW 11.5 mph 18.4 mph N/A   Clear
5:11 PM 86.0 °F 84.2 °F 53.6 °F 33% 29.90 in 10.0 mi South 11.5 mph 18.4 mph N/A   Clear
5:31 PM 86.0 °F 84.2 °F 53.6 °F 33% 29.89 in 10.0 mi South 13.8 mph 17.3 mph N/A   Clear
5:50 PM 84.2 °F 83.0 °F 55.4 °F 37% 29.89 in 10.0 mi South 9.2 mph 17.3 mph N/A   Clear
6:11 PM 84.2 °F 82.8 °F 53.6 °F 35% 29.89 in 10.0 mi South 8.1 mph 19.6 mph N/A   Clear
6:31 PM 84.2 °F 82.8 °F 53.6 °F 35% 29.88 in 10.0 mi South 11.5 mph - N/A   Clear
6:50 PM 84.2 °F 82.8 °F 53.6 °F 35% 29.88 in 10.0 mi South 10.4 mph - N/A   Clear
7:11 PM 82.4 °F 81.7 °F 55.4 °F 39% 29.88 in 10.0 mi South 6.9 mph - N/A   Clear
7:31 PM 82.4 °F 81.4 °F 53.6 °F 37% 29.88 in 10.0 mi South 8.1 mph - N/A   Clear
7:50 PM 80.6 °F 80.5 °F 55.4 °F 42% 29.88 in 10.0 mi South 6.9 mph - N/A   Clear
8:11 PM 80.6 °F 80.5 °F 55.4 °F 42% 29.88 in 10.0 mi South 5.8 mph - N/A   Clear
8:31 PM 78.8 °F - 55.4 °F 44% 29.88 in 10.0 mi South 4.6 mph - N/A   Clear
8:50 PM 77.0 °F - 57.2 °F 50% 29.88 in 10.0 mi South 4.6 mph - N/A   Clear
9:11 PM 75.2 °F - 57.2 °F 53% 29.89 in 10.0 mi South 5.8 mph - N/A   Clear
9:31 PM 75.2 °F - 55.4 °F 50% 29.89 in 10.0 mi South 5.8 mph - N/A   Clear
9:50 PM 75.2 °F - 55.4 °F 50% 29.90 in 10.0 mi South 6.9 mph - N/A   Clear
10:11 PM 73.4 °F - 55.4 °F 53% 29.90 in 10.0 mi South 6.9 mph - N/A   Clear
10:31 PM 73.4 °F - 55.4 °F 53% 29.91 in 10.0 mi South 5.8 mph - N/A   Clear
10:51 PM 71.6 °F - 55.4 °F 57% 29.91 in 10.0 mi SSE 5.8 mph - N/A   Clear
11:11 PM 71.6 °F - 57.2 °F 60% 29.91 in 10.0 mi South 5.8 mph - N/A   Clear
11:30 PM 71.6 °F - 57.2 °F 60% 29.92 in 10.0 mi South 5.8 mph - N/A   Clear
11:51 PM 71.6 °F - 57.2 °F 60% 29.92 in 10.0 mi South 5.8 mph - N/A   Clear